Dewpoint
13 16 16 10 14 17 16 13 9 11 12 10 11 13 15 15 14 16 16 14 12 12 12 13 13 12 11 11 12 11 12 12 12 9 11 11 13 13 13 12 12 13 13 12 14 10 11 11 9
13 17 16 12 17 18 15 10 11 11 10 10 12 13 14 15 15 15 15 14 11 13 13 12 13 12 9 11 12 13 12 13 8 12 12 12 13 13 13 14 14 14 12 14 11 11 8 6 12
15 16 14 15 16 17 14 9 10 10 10 10 11 13 14 15 15 15 14 13 11 11 13 12 13 10 10 12 13 11 10 10 10 11 11 12 14 14 13 13 13 12 13 13 12 10 6 6 12
15 15 13 15 16 14 14 8 9 10 10 10 11 14 14 15 14 14 14 14 11 12 13 12 13 13 13 12 12 12 7 8 9 12 12 13 12 13 10 11 12 14 10 10 10 6 5 13 14
15 15 16 17 15 14 13 8 7 11 10 12 13 14 14 15 14 14 14 14 14 14 13 12 12 13 12 13 9 8 9 9 10 11 11 11 12 13 13 13 13 12 9 8 6 5 7 13 13
15 15 17 17 17 14 13 8 8 10 10 11 14 14 14 14 14 14 14 14 15 14 12 12 12 12 12 12 10 10 10 11 10 11 11 11 12 13 12 11 10 10 7 5 4 3 4 12 14
16 16 17 17 16 15 14 14 8 10 10 10 10 13 13 14 14 13 13 14 14 14 13 12 12 12 12 12 9 10 10 10 12 12 11 11 11 12 12 12 10 8 5 2 2 3 3 7 13
16 15 15 16 16 16 14 15 8 9 11 10 10 10 13 14 13 13 13 13 12 12 12 12 12 12 13 12 11 11 11 11 11 13 12 10 11 11 12 10 8 5 5 6 5 5 5 9 12
15 15 16 16 14 14 15 15 12 9 9 10 9 9 12 13 13 13 12 11 11 11 11 11 12 12 12 12 11 9 12 13 12 11 11 11 11 12 12 10 7 8 7 6 6 6 8 12 12
15 16 16 13 13 15 15 15 15 14 9 10 10 9 11 13 13 13 13 12 12 11 11 11 11 12 12 13 12 9 11 13 11 10 10 13 13 13 11 9 8 8 6 10 9 7 9 12 13
15 16 15 13 13 14 15 13 14 15 11 10 10 9 9 12 13 13 12 12 13 12 12 12 11 12 12 12 10 10 11 12 11 11 11 13 15 13 11 6 8 6 12 13 14 14 14 13 11
14 12 12 12 13 13 13 13 15 14 12 10 10 9 9 9 10 12 13 13 14 14 13 12 10 12 12 12 9 10 11 12 13 13 10 11 13 12 11 7 9 10 10 13 14 13 13 10 12
14 16 12 11 12 13 12 12 15 13 11 11 10 10 9 9 9 12 13 13 14 15 14 13 12 11 11 12 12 11 12 11 12 11 10 13 13 12 12 9 13 13 13 14 13 12 13 14 14
11 13 12 13 13 14 14 15 13 13 13 12 10 10 10 9 9 9 12 14 14 14 15 14 13 10 9 11 11 12 11 11 10 12 13 13 13 13 13 14 14 13 14 14 14 11 13 13 13
13 13 12 13 12 13 13 15 15 14 13 12 9 10 10 9 9 10 12 12 12 14 14 13 12 13 11 10 12 13 12 12 13 13 13 14 13 14 13 13 14 14 13 14 13 12 13 13 12
15 14 16 15 14 13 13 16 14 12 12 12 11 10 10 10 10 9 9 10 11 13 14 13 12 14 13 13 12 13 13 13 13 13 13 12 13 12 12 12 13 13 13 13 11 12 13 13 12
14 15 14 15 14 14 13 14 14 11 10 11 12 10 9 11 10 9 9 10 11 13 13 14 13 13 11 12 14 14 14 14 15 13 12 11 10 10 9 11 13 13 13 12 12 13 12 12 12
16 15 13 15 16 15 12 13 14 8 10 13 13 12 11 10 10 10 9 10 13 13 13 13 14 13 11 14 15 14 14 14 14 13 12 11 13 10 9 9 13 14 14 12 13 12 12 12 12
11 12 12 13 12 14 14 13 13 11 12 13 13 13 10 10 10 11 10 10 12 12 12 12 13 13 10 13 14 14 14 14 14 14 14 14 14 14 6 10 12 14 14 14 10 11 11 10 10
9 11 12 12 12 15 15 16 14 12 13 13 14 12 11 10 11 11 11 11 12 13 13 13 14 14 13 13 13 14 13 13 13 13 13 15 13 12 14 10 13 15 15 13 12 12 12 13 13
10 11 10 11 13 15 15 16 16 13 10 11 13 12 11 12 11 11 12 11 12 12 13 13 13 14 14 11 11 12 13 13 15 14 14 15 14 11 15 13 16 14 14 15 13 13 14 14 14
2 5 8 7 11 14 14 17 15 14 13 11 12 10 10 13 11 11 12 12 13 12 12 12 14 13 14 11 14 14 13 13 14 14 14 13 12 9 9 15 13 11 12 11 14 14 14 14 10
-4 -5 2 3 4 3 13 14 15 14 13 12 13 13 10 12 11 11 12 12 14 13 14 14 15 13 14 13 14 14 13 13 14 13 12 14 14 13 14 15 13 10 11 11 11 15 14 12 13
-10 -8 -2 4 4 6 4 12 16 15 13 15 13 12 12 12 12 11 11 12 15 14 14 13 15 14 14 12 15 14 13 13 14 14 14 13 14 15 13 15 14 10 11 12 14 13 15 13 13
-10 -10 -1 3 5 11 9 12 14 12 12 14 12 10 11 12 12 12 10 11 13 11 14 12 12 14 15 13 15 14 14 12 13 13 13 13 13 14 12 14 14 12 11 14 13 12 10 11 12
-10 -11 -4 3 13 11 9 15 14 9 11 11 6 6 11 13 12 12 12 11 12 14 14 12 13 15 14 14 13 14 14 13 13 14 13 14 14 13 14 13 14 13 13 13 13 12 11 10 13
-8 -8 -12 -7 11 12 12 11 7 10 12 12 11 12 11 12 13 13 13 12 12 13 14 12 12 15 15 14 12 12 13 13 14 13 13 14 14 14 15 15 14 15 14 13 13 15 14 14 15
-9 -8 -7 -5 9 13 13 12 11 10 13 12 9 10 12 12 12 13 13 13 13 13 12 13 12 10 15 15 13 13 13 13 13 13 14 13 14 15 14 15 15 14 14 15 14 13 14 15 15
-8 -4 -2 -1 1 9 14 13 10 11 12 11 9 10 10 10 11 12 12 13 13 13 12 13 14 14 14 15 14 13 14 13 12 13 12 13 14 14 14 14 15 15 14 15 14 15 14 14 15
-7 -6 -2 4 3 4 8 12 9 8 8 8 7 9 9 9 10 11 12 14 13 14 13 14 15 15 15 14 15 14 13 13 12 13 13 12 13 14 14 14 15 14 13 13 15 14 14 13 13
Wind_Speed
4 4 16 14 5 1 4 2 7 16 13 24 26 21 15 19 5 6 22 15 19 19 17 16 15 16 16 15 15 14 14 13 13 12 13 14 16 17 16 15 15 14 15 15 14 15 17 20 20
6 5 11 7 2 3 1 7 12 13 23 29 32 30 24 11 18 23 25 18 17 19 16 17 16 16 16 15 15 14 14 14 14 14 14 15 16 16 16 17 17 17 16 15 15 16 18 21 25
8 6 6 4 1 3 2 6 16 18 26 29 22 19 9 15 18 15 23 21 19 16 16 16 16 16 16 15 16 16 14 16 16 15 16 16 17 16 17 17 18 16 16 15 15 15 18 23 24
6 8 8 3 8 9 7 7 16 20 20 22 22 12 12 16 21 27 28 19 18 16 15 16 16 16 17 16 16 16 16 17 17 17 17 17 16 16 16 17 17 14 15 15 14 16 20 25 23
5 11 3 5 11 10 16 13 10 17 24 29 32 13 13 20 26 28 23 16 16 15 15 17 16 17 17 16 16 16 15 17 18 17 17 17 17 16 18 17 16 16 14 14 14 16 21 24 23
3 7 3 5 8 7 17 13 16 26 26 30 31 22 13 26 27 26 21 18 14 11 18 19 17 16 16 15 16 16 17 17 18 17 17 17 16 17 17 16 15 14 15 14 14 16 18 20 20
6 2 4 2 6 9 8 23 8 22 26 16 27 17 22 32 26 28 26 25 14 9 14 17 16 16 17 16 17 17 17 17 18 18 17 16 16 15 14 14 15 15 14 14 14 15 16 18 18
5 4 4 3 5 4 11 20 18 22 24 33 33 12 19 36 29 28 29 24 14 19 21 17 16 17 15 17 18 18 18 18 19 20 19 18 15 12 13 13 14 15 15 15 14 15 17 19 18
7 3 3 5 9 5 14 9 20 22 30 24 16 30 31 36 34 34 29 25 22 21 20 16 15 17 16 16 18 19 20 20 23 20 20 16 12 13 14 12 13 15 15 15 16 17 20 18 15
5 1 5 11 14 4 5 9 14 12 20 24 31 32 35 36 31 36 28 25 22 23 18 16 13 14 18 17 18 19 20 23 19 17 19 19 13 9 9 12 13 14 17 17 16 17 16 12 6
5 4 9 7 14 13 8 5 12 7 16 35 35 32 29 34 35 33 25 25 24 22 12 15 13 11 17 23 18 20 20 19 20 18 17 16 14 7 10 14 14 14 19 16 11 11 13 4 5
5 6 10 15 20 12 12 11 7 13 12 29 33 31 29 26 25 28 30 26 29 22 18 17 16 14 19 23 23 18 20 25 20 16 12 13 13 8 12 14 14 12 10 6 7 6 8 14 20
8 15 14 13 10 23 19 9 8 2 15 21 28 27 24 23 25 29 33 27 28 26 21 16 15 9 16 20 21 19 18 18 16 13 18 12 11 10 9 14 9 8 8 8 7 5 5 2 3
13 26 14 11 12 5 13 9 6 3 2 5 30 28 23 20 17 26 38 31 27 23 21 16 14 11 20 19 20 20 19 16 17 15 7 7 12 15 10 10 9 5 6 2 2 2 4 4 1
10 8 8 7 6 2 5 5 4 3 7 6 31 27 23 20 16 33 31 27 25 23 21 18 16 16 16 19 18 18 17 20 16 10 8 9 14 14 14 13 12 8 7 4 7 7 5 5 6
1 7 4 6 10 1 0 4 2 10 7 3 11 23 23 23 19 26 24 20 18 21 22 17 19 18 14 14 17 18 17 14 14 11 10 12 14 18 17 18 11 12 9 9 11 9 6 8 7
6 3 2 5 1 9 6 2 8 18 15 2 5 20 20 12 24 24 21 23 22 25 22 20 17 15 15 17 18 13 16 15 16 17 16 12 13 16 17 18 12 9 8 12 11 7 6 3 8
6 3 5 5 11 11 8 7 3 6 7 2 5 10 19 30 24 21 21 27 28 27 19 25 21 15 18 15 9 10 21 16 18 15 13 10 8 10 7 21 10 4 4 11 9 10 6 4 6
8 4 4 5 8 3 6 6 8 13 11 9 15 17 18 24 23 22 24 30 28 25 22 24 24 19 26 22 19 20 16 14 24 20 17 11 8 12 19 17 7 2 4 4 8 13 7 5 1
12 10 12 5 3 5 11 8 12 11 16 22 22 20 13 25 25 25 25 28 30 29 25 26 24 24 21 20 23 19 19 17 14 18 14 15 10 10 11 18 12 9 6 5 7 6 6 5 3
7 11 10 7 10 10 7 5 17 10 9 14 16 27 21 19 30 28 30 30 32 30 27 30 28 25 22 23 24 21 21 19 16 17 18 21 17 15 13 14 10 12 11 6 5 9 7 2 2
7 14 11 14 14 8 12 5 11 14 9 4 15 22 27 18 34 33 35 32 30 32 27 28 29 28 23 25 25 22 23 24 17 20 15 12 12 15 23 16 19 15 12 10 9 6 5 5 4
8 7 6 5 5 0 6 4 3 3 5 9 13 23 27 21 36 37 33 34 29 31 29 24 26 24 24 28 27 24 25 22 18 19 18 15 12 12 14 14 15 17 14 13 11 7 8 7 3
6 8 8 5 5 3 6 7 4 6 8 7 14 23 22 30 35 35 33 34 29 34 27 17 27 24 25 30 29 29 25 28 23 18 24 17 16 14 10 16 12 14 15 15 11 13 15 8 6
7 4 4 5 3 2 6 5 6 15 10 12 16 27 28 17 31 33 38 34 42 32 36 25 29 29 29 28 33 31 29 29 27 20 19 21 20 18 14 19 14 9 12 15 13 11 11 12 11
8 9 5 6 3 1 6 0 8 14 25 29 23 29 27 18 24 39 43 35 34 33 39 21 30 30 29 32 38 34 32 32 30 25 18 21 19 14 16 17 17 12 9 11 13 8 6 5 9
9 6 11 3 3 4 3 5 3 15 16 19 21 20 27 27 28 40 40 41 37 33 38 30 29 30 30 32 31 35 34 34 34 27 26 23 21 17 15 24 20 13 8 9 9 6 4 5 6
7 7 2 2 3 4 3 2 4 2 15 16 19 28 25 32 37 41 33 43 40 37 30 29 29 30 36 34 29 32 33 36 33 32 27 27 24 20 14 18 22 15 11 9 9 8 9 10 12
5 5 4 3 4 5 4 5 6 16 16 20 26 26 24 15 11 8 18 30 36 36 32 29 32 32 31 33 31 29 30 31 34 33 31 29 25 24 17 19 21 18 15 14 16 12 12 13 14
9 7 7 4 8 3 5 5 11 16 22 23 19 27 24 20 14 7 7 7 26 31 34 31 33 40 35 32 30 27 22 24 28 34 33 34 29 27 21 19 23 23 18 18 17 17 14 15 15
Wind_Direction
130 93 74 85 24 3 266 151 153 115 80 78 75 84 83 45 33 131 147 149 135 137 133 131 133 137 135 132 128 123 117 115 113 119 121 120 112 125 135 134 137 132 125 119 122 120 116 112 114
198 103 75 62 65 303 242 112 93 92 103 97 99 94 69 80 90 124 147 159 145 130 125 128 127 131 130 127 121 118 118 118 115 119 124 121 121 124 128 131 127 126 124 123 120 120 114 119 118
129 106 122 106 208 258 286 97 105 88 97 95 76 88 84 121 115 134 139 152 151 145 133 130 129 132 127 126 123 121 123 121 119 120 119 120 120 125 125 126 123 126 126 131 129 121 118 126 122
121 90 47 79 250 265 275 134 121 109 105 106 104 70 81 138 130 135 142 143 145 141 142 141 137 135 130 127 129 140 131 124 126 124 122 120 121 121 126 130 126 125 128 127 122 119 123 129 124
216 120 92 336 298 290 309 93 105 104 101 93 95 99 103 123 125 139 151 149 138 146 157 150 147 146 138 136 134 135 134 136 130 128 126 122 125 128 124 123 127 130 125 120 120 124 129 130 124
150 94 130 170 255 270 289 56 96 108 106 109 107 117 127 136 127 127 135 133 127 128 151 153 153 154 149 145 146 142 138 136 131 127 125 127 130 133 128 130 129 126 121 120 122 120 128 136 127
307 90 58 312 230 295 289 329 140 124 123 115 121 120 141 145 132 129 122 126 146 150 151 144 152 157 159 158 153 150 142 141 135 130 126 127 132 134 129 132 132 124 123 119 115 117 125 134 129
21 89 83 34 239 291 293 323 89 110 127 134 123 134 146 141 137 126 128 141 122 121 134 139 154 159 159 152 157 148 141 141 141 133 129 129 131 132 134 134 131 127 119 113 114 115 115 113 108
126 74 114 219 195 217 235 313 18 112 129 144 125 136 137 145 138 141 137 130 118 121 128 123 127 151 155 158 155 152 142 141 138 135 129 130 140 133 134 134 133 121 113 111 112 111 113 114 115
107 258 213 200 203 176 139 25 355 359 118 125 122 132 139 142 140 143 149 143 130 131 130 127 131 145 169 156 157 162 153 148 142 139 134 132 134 127 132 139 131 117 113 108 102 104 115 103 110
149 173 201 237 186 113 115 155 344 333 118 130 134 143 151 152 152 152 161 153 141 140 135 138 140 138 165 175 164 160 162 148 140 149 156 142 131 131 137 137 130 121 121 101 88 79 76 65 62
97 351 107 92 108 109 134 140 316 304 72 135 140 149 161 171 175 167 162 155 150 134 129 125 144 147 156 160 163 160 146 148 155 160 153 133 126 132 136 131 118 118 123 92 74 92 98 105 107
109 104 113 115 117 131 133 158 205 32 112 153 141 156 169 175 179 165 161 159 149 141 145 132 145 143 162 161 162 155 155 150 160 143 136 127 136 139 136 142 131 118 114 85 82 50 134 145 79
95 79 116 128 124 146 165 162 167 191 201 167 150 164 179 182 179 153 158 156 155 148 149 146 137 133 154 155 152 149 139 141 153 149 173 179 187 196 212 195 203 250 258 183 141 177 160 159 312
45 82 69 31 136 125 147 79 330 277 8 238 164 168 175 167 166 143 151 149 155 154 160 158 156 147 145 158 154 153 137 139 136 159 185 209 199 183 192 201 205 198 223 213 205 221 239 251 169
183 56 44 42 310 161 204 134 295 129 310 149 182 164 159 172 157 155 153 154 168 160 168 160 162 159 165 150 151 160 158 159 157 179 196 199 184 187 197 192 179 175 184 199 232 226 277 217 211
3 198 254 106 263 282 215 189 193 197 207 288 152 162 187 166 169 169 164 168 175 169 161 172 167 166 183 177 179 180 185 185 192 187 193 178 188 183 194 184 165 139 182 218 214 234 268 100 196
184 197 212 156 205 231 185 244 187 209 260 322 182 205 183 170 161 167 169 171 165 164 165 174 185 166 167 186 197 188 177 176 178 168 156 165 154 150 221 175 152 115 205 220 232 227 220 181 3
158 115 132 279 225 182 211 193 197 224 214 237 245 226 183 163 166 169 173 176 178 183 175 179 186 183 175 191 190 179 164 164 185 183 158 181 146 127 116 161 180 197 191 188 212 205 196 203 341
155 157 194 245 256 187 197 98 299 190 234 240 220 229 199 187 176 177 175 179 182 183 184 181 191 193 196 200 193 191 169 172 183 185 177 182 184 192 156 179 212 211 201 165 238 241 240 237 280
193 187 196 181 208 219 125 82 57 282 273 287 231 229 218 211 185 184 181 179 189 196 194 187 198 204 207 200 188 177 182 181 183 180 168 172 195 205 192 198 217 211 219 207 196 224 217 229 260
231 220 210 281 146 205 205 144 188 222 248 212 259 232 226 188 196 188 188 182 197 205 198 196 199 207 214 194 189 199 202 198 194 185 184 202 207 211 201 205 216 216 232 224 195 225 214 278 219
251 308 223 237 292 33 196 122 227 282 217 219 215 228 231 229 197 189 195 201 195 195 193 200 208 212 209 199 199 206 212 203 205 202 207 204 204 207 205 218 228 222 220 228 215 220 231 233 242
270 295 290 206 230 308 272 149 215 206 211 203 186 205 221 205 201 204 211 195 182 186 203 214 208 220 215 204 203 207 214 210 193 209 204 199 208 208 217 219 234 214 210 215 218 223 225 213 227
203 302 312 320 346 224 7 42 251 203 211 187 209 214 218 221 203 203 197 211 208 206 207 228 211 210 220 212 208 209 209 212 209 204 205 216 213 219 218 213 216 215 222 215 220 226 230 232 216
208 188 174 225 157 190 356 281 299 214 187 189 225 203 214 198 200 213 216 212 205 208 194 222 205 205 218 217 209 214 210 211 210 210 205 206 219 227 218 216 213 216 213 222 231 222 217 204 215
262 200 216 186 23 89 260 269 15 143 178 179 206 219 234 213 204 218 211 216 210 205 207 206 200 215 222 221 216 217 215 213 212 205 209 212 219 217 232 233 221 215 223 231 238 233 233 206 227
191 230 288 285 145 198 223 318 241 135 183 192 204 207 224 202 216 214 215 200 206 198 208 208 204 210 210 223 218 219 218 217 215 213 211 216 222 230 228 215 207 210 210 222 235 237 254 250 241
269 280 276 167 171 152 169 244 224 125 262 197 198 177 148 153 156 157 205 213 212 208 206 215 214 204 204 220 221 220 218 219 219 217 215 213 216 229 221 211 200 205 215 219 239 233 234 246 251
204 233 208 149 286 246 154 266 200 173 215 169 157 152 158 159 163 175 174 97 213 202 204 203 203 206 208 214 221 224 218 221 223 218 220 216 210 221 217 214 219 222 220 234 234 248 245 239 255
Height
1513 1513 1512 1509 1524 1517 1517 1503 1489 1495 1495 1495 1494 1500 1510 1508 1512 1532 1531 1534 1538 1540 1543 1544 1546 1548 1550 1551 1552 1554 1555 1556 1558 1558 1559 1560 1560 1561 1564 1565 1565 1565 1566 1567 1568 1567 1567 1567 1568
1511 1513 1519 1522 1532 1532 1509 1490 1493 1494 1496 1496 1500 1505 1511 1521 1520 1526 1531 1536 1539 1541 1544 1544 1546 1548 1551 1552 1554 1555 1556 1558 1559 1560 1560 1562 1562 1563 1565 1566 1566 1567 1568 1569 1568 1569 1569 1570 1570
1511 1513 1519 1527 1535 1532 1510 1489 1491 1496 1497 1497 1504 1508 1516 1524 1526 1529 1532 1535 1538 1541 1543 1545 1547 1549 1550 1552 1554 1555 1556 1558 1559 1561 1562 1563 1565 1566 1566 1568 1568 1569 1569 1570 1570 1571 1572 1573 1574
1511 1518 1528 1532 1531 1516 1510 1490 1490 1493 1499 1502 1503 1516 1522 1524 1525 1528 1533 1536 1539 1541 1544 1545 1547 1549 1550 1552 1552 1554 1556 1558 1559 1561 1563 1564 1567 1568 1568 1569 1569 1571 1571 1571 1572 1574 1575 1577 1578
1510 1518 1534 1534 1534 1520 1504 1491 1490 1495 1500 1506 1505 1522 1525 1529 1528 1531 1535 1537 1539 1542 1543 1546 1547 1548 1550 1552 1554 1556 1558 1559 1560 1562 1563 1565 1567 1568 1568 1569 1571 1572 1572 1573 1575 1576 1577 1579 1581
1509 1511 1529 1538 1530 1519 1508 1492 1492 1497 1503 1510 1512 1520 1528 1530 1530 1533 1537 1539 1540 1540 1543 1545 1547 1548 1550 1552 1554 1556 1558 1561 1562 1564 1565 1566 1568 1569 1570 1571 1572 1573 1574 1576 1578 1578 1579 1581 1584
1513 1513 1533 1526 1527 1526 1508 1497 1492 1496 1503 1510 1514 1521 1530 1532 1533 1535 1538 1541 1541 1541 1543 1545 1547 1549 1550 1551 1553 1556 1559 1561 1563 1564 1565 1566 1568 1570 1572 1573 1574 1575 1577 1579 1580 1579 1580 1583 1586
1509 1516 1533 1533 1534 1530 1513 1505 1493 1495 1505 1512 1511 1522 1531 1532 1534 1537 1540 1541 1542 1543 1545 1547 1548 1549 1551 1551 1554 1557 1559 1561 1562 1564 1565 1566 1568 1571 1574 1576 1578 1578 1579 1580 1580 1580 1583 1586 1590
1505 1520 1530 1527 1528 1524 1514 1509 1501 1501 1506 1512 1511 1519 1526 1532 1535 1537 1540 1542 1543 1546 1549 1551 1550 1550 1551 1554 1556 1557 1559 1561 1563 1566 1567 1569 1571 1574 1577 1580 1582 1582 1583 1583 1581 1582 1586 1590 1593
1504 1522 1519 1514 1513 1512 1516 1510 1512 1509 1504 1512 1518 1525 1529 1534 1535 1535 1537 1540 1543 1546 1549 1551 1552 1552 1552 1554 1556 1557 1560 1564 1566 1568 1568 1570 1574 1577 1580 1583 1585 1586 1587 1586 1585 1586 1590 1594 1594
1498 1509 1505 1503 1507 1507 1512 1515 1512 1515 1509 1512 1518 1525 1530 1534 1534 1534 1536 1538 1543 1546 1546 1551 1551 1552 1552 1553 1556 1558 1562 1564 1567 1568 1569 1572 1573 1578 1582 1584 1587 1588 1590 1588 1589 1591 1595 1593 1596
1500 1503 1502 1504 1507 1510 1512 1514 1517 1518 1516 1517 1520 1525 1530 1532 1532 1533 1535 1539 1542 1547 1548 1550 1551 1553 1554 1555 1557 1561 1564 1566 1566 1569 1574 1576 1577 1580 1583 1585 1588 1591 1593 1592 1591 1593 1596 1596 1598
1499 1498 1505 1505 1508 1510 1514 1516 1522 1522 1519 1523 1522 1528 1529 1530 1532 1534 1537 1539 1542 1545 1549 1551 1553 1554 1555 1556 1559 1563 1565 1568 1570 1574 1579 1581 1582 1583 1585 1585 1588 1591 1593 1595 1593 1593 1596 1598 1598
1502 1496 1506 1507 1511 1514 1515 1518 1521 1522 1519 1521 1522 1526 1528 1530 1531 1534 1538 1539 1542 1545 1548 1551 1555 1557 1556 1558 1561 1563 1566 1569 1574 1580 1585 1584 1586 1587 1587 1585 1587 1590 1593 1595 1595 1595 1597 1599 1598
1504 1500 1505 1512 1514 1514 1513 1522 1520 1519 1521 1520 1521 1523 1527 1528 1532 1533 1539 1542 1544 1546 1548 1552 1556 1559 1557 1559 1563 1564 1565 1571 1579 1584 1585 1583 1586 1587 1586 1585 1586 1590 1594 1595 1596 1597 1598 1598 1598
1502 1506 1525 1523 1518 1518 1517 1527 1519 1516 1521 1521 1523 1523 1525 1528 1531 1535 1538 1542 1546 1549 1551 1553 1556 1558 1559 1561 1562 1565 1566 1570 1578 1583 1588 1586 1587 1586 1583 1584 1587 1588 1591 1594 1596 1597 1597 1597 1596
1514 1526 1522 1526 1519 1518 1518 1522 1516 1517 1522 1520 1522 1522 1524 1529 1531 1535 1538 1541 1544 1548 1551 1551 1555 1557 1558 1560 1564 1567 1567 1569 1575 1584 1587 1588 1586 1581 1582 1584 1586 1587 1590 1593 1596 1597 1598 1596 1596
1519 1516 1509 1522 1515 1515 1514 1515 1514 1511 1511 1518 1523 1524 1525 1527 1530 1534 1538 1541 1544 1548 1551 1554 1554 1557 1558 1558 1562 1565 1569 1571 1574 1580 1583 1580 1583 1582 1578 1585 1585 1587 1591 1593 1596 1596 1597 1597 1597
1496 1506 1510 1508 1505 1513 1511 1514 1517 1516 1516 1520 1522 1525 1524 1526 1530 1533 1537 1540 1543 1548 1551 1552 1555 1558 1560 1562 1564 1567 1568 1570 1572 1576 1579 1577 1580 1581 1578 1584 1586 1590 1593 1594 1594 1594 1596 1597 1596
1489 1504 1507 1502 1501 1515 1512 1523 1523 1524 1525 1521 1521 1522 1524 1526 1528 1532 1535 1537 1540 1543 1547 1549 1552 1555 1557 1561 1564 1567 1569 1570 1572 1577 1579 1576 1579 1580 1586 1587 1588 1590 1592 1591 1593 1594 1595 1597 1594
1489 1493 1488 1488 1492 1517 1516 1530 1532 1524 1521 1521 1520 1518 1521 1524 1524 1528 1533 1536 1537 1537 1541 1545 1549 1553 1557 1560 1563 1567 1569 1571 1573 1574 1577 1578 1579 1580 1582 1586 1588 1588 1588 1589 1592 1592 1593 1595 1594
1493 1470 1474 1475 1494 1517 1498 1543 1531 1518 1517 1514 1514 1515 1516 1520 1522 1524 1529 1532 1533 1536 1541 1542 1545 1548 1553 1558 1561 1564 1567 1569 1572 1573 1575 1577 1579 1579 1582 1585 1586 1587 1586 1588 1591 1591 1591 1594 1592
1478 1466 1469 1467 1482 1483 1497 1518 1515 1519 1515 1506 1504 1505 1508 1514 1515 1519 1524 1529 1534 1542 1543 1548 1547 1548 1551 1555 1558 1560 1564 1567 1570 1572 1574 1575 1578 1579 1580 1582 1583 1584 1586 1588 1590 1590 1592 1593 1590
1464 1469 1471 1470 1482 1514 1492 1500 1525 1520 1504 1500 1495 1492 1497 1506 1510 1516 1523 1528 1532 1536 1532 1543 1544 1545 1548 1552 1556 1556 1559 1562 1565 1567 1570 1573 1576 1577 1578 1580 1581 1583 1585 1586 1588 1589 1591 1591 1591
1465 1483 1518 1521 1518 1514 1485 1495 1500 1489 1491 1487 1483 1482 1489 1502 1506 1515 1518 1522 1525 1528 1533 1531 1534 1538 1543 1546 1552 1553 1555 1559 1560 1561 1564 1568 1573 1575 1576 1578 1580 1581 1583 1585 1586 1587 1587 1588 1590
1472 1481 1515 1526 1526 1510 1484 1520 1507 1472 1482 1481 1476 1475 1485 1499 1501 1506 1515 1516 1518 1520 1526 1528 1530 1533 1538 1542 1545 1548 1551 1554 1555 1556 1559 1564 1567 1570 1574 1576 1577 1579 1580 1582 1583 1584 1584 1584 1587
1468 1483 1465 1487 1500 1513 1504 1496 1471 1476 1480 1483 1484 1484 1485 1494 1501 1504 1508 1511 1513 1518 1522 1524 1526 1530 1536 1538 1541 1543 1548 1550 1551 1551 1553 1558 1562 1564 1566 1570 1573 1575 1576 1577 1579 1580 1581 1582 1585
1455 1454 1484 1487 1521 1520 1508 1500 1498 1478 1480 1481 1488 1484 1483 1489 1497 1499 1502 1505 1508 1514 1519 1520 1520 1519 1527 1532 1535 1540 1542 1547 1549 1549 1550 1553 1557 1559 1560 1562 1567 1570 1571 1572 1573 1576 1579 1581 1582
1461 1466 1462 1470 1476 1506 1525 1506 1475 1477 1493 1479 1479 1479 1480 1486 1491 1494 1499 1502 1505 1510 1513 1511 1514 1516 1521 1528 1534 1536 1537 1540 1543 1544 1547 1550 1552 1555 1557 1559 1562 1565 1567 1570 1572 1571 1574 1576 1579
1442 1454 1457 1489 1486 1476 1485 1498 1460 1464 1475 1467 1472 1477 1482 1487 1490 1493 1496 1499 1501 1506 1508 1507 1511 1513 1518 1524 1531 1530 1532 1533 1536 1538 1542 1547 1548 1549 1552 1556 1559 1562 1564 1565 1567 1569 1571 1571 1572